Preview of NWS' New Version of Forecast
This preview is not operational and should not be used for support decisions.
Latest weather observations around

Missoula, Missoula International Airport (KMSO)

Using International System of Units (Switch to English Units)
Date/ Time (MDT) Wind (kph) Vis. (km) Weather Sky Cond. Temp (°C) Rel. Humidity Wind Chill (°C) Heat Index (°C) Pressure Precip. (cm)
Air Dwpt 6 hour Altimeter (hPa) Sea level (hPa) 1 hr 3 hr 6 hr
Max Min
Aug 25 11:53 WNW 17 16.09 Cloudy OVC065 19 6     42%     1015.9 1014.5      
Aug 25 10:53 8 16.09 Cloudy BKN060 OVC075 18 8     52%     1015.6 1014      
Aug 25 09:53 Calm 16.09 Mostly Cloudy BKN080 16 7     56%     1014.9 1013.4      
Aug 25 08:53 SE 9 16.09 Clear CLR 14 7     62%     1014.9 1013.3      
Aug 25 07:53 Calm 16.09 Mostly Clear FEW120 11 7     74%     1014.6 1013.3      
Aug 25 06:53 Calm 16.09 Clear CLR 11 6     69%     1014.2 1012.7      
Aug 25 05:53 Calm 16.09 Clear CLR 11 5     68%     1014.2 1012.5      
Aug 25 04:53 WNW 5 16.09 Clear CLR 10 4     66%     1014.2 1012.6      
Aug 25 03:53 NNE 5 16.09 Clear CLR 13 4     55%     1013.9 1011.9      
Aug 25 02:53 NNW 8 16.09 Clear CLR 12 4     57%     1013.6 1011.6      
Aug 25 01:53 NW 8 16.09 Clear CLR 13 4     53%     1013.6 1011.8      
Aug 25 00:53 NNW 5 16.09 Clear CLR 14 4     53%     1013.6 1011.9      
Aug 24 23:53 N 5 16.09 Clear CLR 17 4     43%     1013.2 1011.5      
Aug 24 22:53 W 13 16.09 Clear CLR 19 4     38%     1012.9 1011.3      
Aug 24 21:53 WNW 15 16.09 Clear CLR 21 3     31%     1012.5 1010.9      
Aug 24 20:53 WNW 18 16.09 Clear CLR 22 3     29%   21 1012.2 1010.7      
Aug 24 19:53 NW 21 16.09 Clear CLR 24 4     27%   24 1011.5 1009.8      
Aug 24 18:53 WNW 21 16.09 Clear CLR 26 6     29%   25 1011.5 1009.7      
Aug 24 17:53 WNW 22 16.09 Clear CLR 27 6     26%   26 1011.2 1009.3     0
Aug 24 16:53 W 26 16.09 Clear CLR 28 6     24%   27 1010.2 1008.1      
Aug 24 15:53 Calm 16.09 Mostly Cloudy BKN100 29 8     27%   28 1010.2 1007.5 0    
Aug 24 14:53 11 16.09 Mostly Clear FEW090 28 8     28%   27 1010.2 1007.9      
Aug 24 13:53 8 16.09 Clear CLR 27 8     30%   26 1010.8 1008.6      
Aug 24 12:53 ESE 11 16.09 Partly Cloudy FEW095 SCT120 24 11     43%   23 1011.5 1009.6      
Aug 24 11:53 SE 17 16.09 Mostly Cloudy SCT095 BKN120 21 12     55%     1012.9 1011.1     0
Aug 24 10:53 SE 5 16.09 Clear CLR 18 12     70%     1013.2 1011.8 0    
Aug 24 09:53 Calm 16.09 Partly Cloudy FEW055 SCT100 16 12     75%     1013.6 1012.2 0    
Aug 24 08:53 SW 5 16.09 Partly Cloudy SCT100 14 12     87%     1013.6 1012.1   0  
Aug 24 07:53 Calm 16.09 Cloudy OVC110 14 11     83%     1013.2 1011.5      
Aug 24 06:53 NW 5 16.09 Mostly Cloudy BKN095 13 10     80%     1012.9 1011.1 0    
Aug 24 05:53 WNW 8 16.09 Partly Cloudy SCT100 12 10     86%     1012.5 1010.6      
Aug 24 04:53 Calm 16.09 Clear CLR 15 11     78%     1012.5 1010.4      
Aug 24 03:53 Calm 16.09 Clear CLR 16 11     72%     1012.5 1010.2      
Aug 24 02:53 Calm 16.09 Clear CLR 16 12     78%     1012.5 1010.5      
Aug 24 01:53 SE 5 16.09 Clear CLR 16 11     75%     1012.5 1010.6      
Aug 24 00:53 W 11 16.09 Clear CLR 16 12     75%     1012.5 1010.8      
Aug 23 23:53 Calm 16.09 Clear CLR 18 12     67%     1012.5 1011      
Aug 23 22:53 SE 9 16.09 Clear CLR 18 11     63%     1012.5 1011.1      
Aug 23 21:53 N 11 16.09 Clear CLR 19 12     63%     1012.5 1011.1      
Aug 23 20:53 NNW 9 16.09 Clear CLR 20 13     63%     1011.9 1010.6      
Aug 23 19:53 SW 8 16.09 Clear CLR 24 12     47%   24 1011.2 1009.6      
Aug 23 18:53 Calm 16.09 Clear CLR 27 11     38%   26 1011.5 1009.9      
Aug 23 17:53 WNW 11 16.09 Clear CLR 27 11     38%   26 1011.9 1010      
Aug 23 16:53 11 16.09 Mostly Clear FEW060 27 11     35%   27 1012.2 1010.5      
Aug 23 15:53 8 16.09 Clear CLR 27 10     34%   27 1013.2 1011.1      
Aug 23 14:53 SSE 5 16.09 Clear CLR 26 9     36%   25 1013.9 1011.9      
Aug 23 13:53 8 16.09 Clear CLR 25 12     43%   25 1014.6 1012.6      
Aug 23 12:53 SSE 5 16.09 Clear CLR 22 12     55%   21 1015.6 1014.1      
Aug 23 11:53 Calm 16.09 Mostly Clear FEW020 20 12     61%     1016.9 1015.5      
Aug 23 10:53 WSW 8 16.09 Mostly Clear FEW015 17 12     75%     1018 1016.7      
Aug 23 10:19 Calm 16.09 Partly Cloudy SCT010 16 12     80%     1018.3        
Aug 23 10:10 Calm 16.09 Mostly Cloudy BKN010 15 12     81%     1018.3        
Aug 23 09:53 W 5 16.09 Partly Cloudy SCT008 15 12     83%     1018.3 1017.3      
Aug 23 09:37 WNW 5 16.09 Partly Cloudy FEW006 SCT020 15 12     83%     1018.3        
Aug 23 08:53 WSW 8 16.09 Cloudy OVC015 13 12     90%     1018.6 1017.7      
Aug 23 08:00 W 8 16.09 Cloudy OVC017 12 11     93%     1018.3        
Aug 23 07:53 W 5 16.09 Partly Cloudy SCT010 13 11     89%     1018.3 1017.3      
Aug 23 06:59 Calm 16.09 Partly Cloudy SCT010 11 10     93%     1018.3        
Aug 23 06:53 S 5 16.09 Mostly Cloudy BKN009 11 10     93%     1018 1017.1      
Aug 23 06:25 SSE 5 16.09 Mostly Clear FEW009 11 9     89%     1018        
Aug 23 05:53 Calm 16.09 Clear CLR 12 10     89%     1018.3 1017.1      
Aug 23 04:53 WNW 8 8.05 Fog/Mist CLR 11 10     96%     1018 1017.1      
Aug 23 03:53 Calm 16.09 Clear CLR 14 11     83%     1017.6 1016.1      
Aug 23 02:53 Calm 16.09 Clear CLR 14 12     87%     1017.3 1016      
Aug 23 01:53 SE 5 16.09 Clear CLR 13 12     90%     1016.9 1016.2      
Aug 23 00:53 N 11 16.09 Clear CLR 14 12     87%     1016.9 1015.5      
Aug 22 23:53 NW 5 16.09 Cloudy OVC050 16 13     83%     1016.9 1015.6      
Aug 22 22:53 Calm 16.09 Cloudy OVC048 16 12     78%     1016.9 1015.5      
Aug 22 21:53 Calm 16.09 Mostly Cloudy BKN048 BKN060 17 13     78%     1016.3 1015.3      
Aug 22 20:53 SSE 5 16.09 Mostly Cloudy FEW046 BKN055 17 13     75%     1016.3 1015      
Aug 22 19:53 W 5 16.09 Clear CLR 19 12     63%     1015.6 1014.2      
Aug 22 18:53 W 17 16.09 Mostly Clear FEW042 FEW070 19 12     61%     1014.9 1013.7      
Aug 22 17:53 WSW 9 16.09 Cloudy OVC085 21 12     59%     1014.6 1013.1 0   0
Aug 22 16:53 W 11 16.09 Cloudy OVC075 18 13     73%     1014.6 1013.1 0    
Aug 22 16:25   14.48 Light Rain FEW031 SCT044 OVC085 18 13     73%     1014.2   0    
Aug 22 15:53 S 15 16.09 Partly Cloudy SCT100 21 13     59%     1013.9 1011.9      
Aug 22 14:53 NNW 15 16.09 Partly Cloudy SCT085 21 12     57%     1014.2 1012.3 0 0  
Aug 22 13:53 Calm 14.48 Light Rain FEW028 SCT036 OVC085 17 14     86%     1014.6 1012.7 0    
Aug 22 13:50 Calm 4.83 Light Rain and Fog/Mist FEW028 BKN050 OVC085 17 14     83%     1014.6   0    
Aug 22 13:48 Calm 2.01 Light Rain and Fog/Mist FEW028 BKN049 OVC085 17 14     83%     1014.6   0    
Aug 22 13:40 5 1.21 Heavy Rain and Fog/Mist SCT028 BKN037 OVC055 16 14     87%     1014.6   0    
Aug 22 13:38 W 11 2.41 Heavy Rain SCT030 BKN037 OVC055 17 14     84%     1014.6   0    
Aug 22 13:19 SW 21 16.09 Mostly Cloudy FEW034 BKN055 BKN070 20 12     61%     1014.2        
Aug 22 12:53 8 16.09 Cloudy BKN065 OVC085 21 11     53%     1013.9 1011.7      
Aug 22 11:53 N 9 16.09 Cloudy BKN050 OVC100 20 12     59%     1014.2 1011.8     0
May 14 10:53 S 5 16.09 Clear CLR 14 6     55%     1020.3 1019.6      
May 14 06:53 SSE 5 16.09 Clear CLR 6 3     82% 5   1020.7 1020.5      
May 12 22:53 Calm 16.09 Clear CLR 11 3     59%     1014.9 1014.9      
May 12 18:53 N 15 16.09 Clear CLR 19 3     34%     1013.6 1013.5      
May 11 17:53   16.09 Mostly Clear FEW060 13 7     66%     1017.6 1017.8     0
Jun 11 20:53   16.09 Clear   18 2     34%     1009.8 1009.3      
Jun 11 14:53 W 8 16.09 Clear CLR 18 -2     25%     1012.2 1012.4      
Jun 10 12:13 8 9.66 Light Rain FEW035 BKN043 OVC055 11 5     66%     1007.5   0    
Jun 10 08:53 S 11 16.09 Clear CLR 11 5     68%     1007.5 1007.1      
Jun 09 13:53 11 16.09 Light Rain FEW026 SCT037 BKN047 14 9     72%     1009.2 1008.7 0    
Jun 08 21:53   16.09 Mostly Clear FEW120 18 11     63%     1007.5 1005.9      
Jun 07 23:53 E 17 16.09 Clear CLR 21 12     57%     1010.5 1008.2      
Jun 07 09:53 Calm 16.09 Clear CLR 19 11     61%     1015.6 1013.8      
Jun 06 01:53 N 8 16.09 Clear CLR 8 5     80% 7   1021.7 1021.1